ISS [Orbit 2492] 1 25544U 98067A 21015.50366467 .00016717 00000-0 10270-3 0 9003 2 25544 51.6428 17.9288 0000133 218.1715 141.9426 15.49314799 24921 ISS [Orbit 2508] 1 25544U 98067A 21016.53571202 .00016717 00000-0 10270-3 0 9013 2 25544 51.6420 12.8209 0000305 299.3247 60.7873 15.49311686 25086 ISS [Orbit 2523] 1 25544U 98067A 21017.50325542 .00016717 00000-0 10270-3 0 9026 2 25544 51.6424 8.0337 0000144 271.4844 88.6289 15.49309747 25236 ISS [Orbit 2539] 1 25544U 98067A 21018.53529845 .00016717 00000-0 10270-3 0 9033 2 25544 51.6428 2.9257 0000416 319.8333 40.2787 15.49317629 25398 ISS [Orbit 2554] 1 25544U 98067A 21019.50283862 .00016717 00000-0 10270-3 0 9048 2 25544 51.6420 358.1388 0000270 320.0395 40.0735 15.49309460 25543 ISS [Orbit 2570] 1 25544U 98067A 21020.53488036 .00016717 00000-0 10270-3 0 9054 2 25544 51.6423 353.0312 0000493 320.8755 39.2360 15.49309423 25703 ISS [Orbit 2585] 1 25544U 98067A 21021.50241760 .00016717 00000-0 10270-3 0 9064 2 25544 51.6426 348.2437 0000393 322.3345 37.7778 15.49313651 25851 ISS [Orbit 2588] 1 25544U 98067A 21021.69592566 .00016717 00000-0 10270-3 0 9078 2 25544 51.6461 347.2867 0002206 276.9398 83.1501 15.48900165 25886 ISS [Orbit 2604] 1 25544U 98067A 21022.72824315 .00016717 00000-0 10270-3 0 9084 2 25544 51.6461 342.1813 0002271 281.5957 78.4938 15.48924581 26044 ISS [Orbit 2619] 1 25544U 98067A 21023.69604218 .00016717 00000-0 10270-3 0 9090 2 25544 51.6455 337.3954 0002224 286.8312 73.2594 15.48904870 26196 ISS [Orbit 2635] 1 25544U 98067A 21024.72835840 .00016717 00000-0 10270-3 0 9104 2 25544 51.6457 332.2903 0002325 288.1845 71.9052 15.48918086 26350 ISS [Orbit 2650] 1 25544U 98067A 21025.69615413 .00016717 00000-0 10270-3 0 9114 2 25544 51.6459 327.5036 0002381 294.4318 65.6583 15.48912524 26500 ISS [Orbit 2660] 1 25544U 98067A 21026.34135018 .00016717 00000-0 10270-3 0 9126 2 25544 51.6434 324.3117 0001962 297.3111 62.7839 15.48890133 26609 ISS [Orbit 2676] 1 25544U 98067A 21027.37366067 .00016717 00000-0 10270-3 0 9131 2 25544 51.6425 319.2072 0002101 297.2899 62.8037 15.48929031 26768 ISS [Orbit 2691] 1 25544U 98067A 21028.34145440 .00016717 00000-0 10270-3 0 9140 2 25544 51.6419 314.4207 0002110 306.9730 53.1227 15.48896510 26916 ISS [Orbit 2707] 1 25544U 98067A 21029.37376147 .00016717 00000-0 10270-3 0 9155 2 25544 51.6422 309.3161 0002114 303.6541 56.4408 15.48949688 27070 ISS [Orbit 2714] 1 25544U 98067A 21029.82539806 .00016717 00000-0 10270-3 0 9169 2 25544 51.6425 307.0790 0002056 309.4190 50.6778 15.48922586 27147